星链-35337(STARLINK-35337)

导读

STARLINK-35337是美国于2025年9月29日发射的星链系列卫星,隶属于太空探索技术公司 SpaceX 主导的星链卫星互联网星座项目。星链计划旨在构建全球卫星互联网覆盖网络,为全球偏远地区、高延迟网络覆盖区域提供高速低延迟的互联网接入服务,该卫星的发射进一步完善了星链星座的全球服务能力。

基本信息
目录编号:
65831
目录名称:
STARLINK-35337
国际标识:
2025-221J
轨道中心:
EARTH
卫星名称:
星链-35337
卫星全名:
星链-35337(STARLINK-35337)
卫星状态:
在轨 (已飞行340 天)
发射日期:
2025-09-29 UTC
国别 :
美国 (US)
星等 :
--
轨道信息
数据来源 国际轨道数据
星历时间: 2026-09-04T01:35:21+0800
19小时前
查看轨道信息
半长轴: 6840.905km
偏心率: 0.0001269
轨道倾角: 53.160°
近地点辐角 69.087°
升交点赤经 337.735°
平近点角 291.027°
近地点: 461.899km
远地点: 463.637km
周期: 93.849分钟
每日圈数: 15.343785
详细信息
固有亮度:
5
最大亮度:
2.5
卫星平台:
Starlink V1.0
覆盖范围:
全球
运营商:
太空探索技术公司
运营商所在国:
美国
制造商(研发单位):
太空探索技术公司
制造商所在国:
美国
使用方式:
暂无
卫星简介
Starlink 计划是 SpaceX 推出的全球卫星互联网项目,通过发射低轨道卫星,为全球尤其是偏远地区提供高速、低延迟的互联网服务。自 2019 年起,Starlink 已部署数千颗卫星,旨在缩小全球数字鸿沟,推动互联网普及。该项目还为军事、航空等行业提供通信支持,带来广泛经济效益。
2D轨道图
3D轨道图
轨道高度分析图
轨道倾角分析图
轨道综合分析图
查看轨道综合分析图
交会数据列表
事件ID 空间交会对象 最接近时刻(TCA) 交会距离 交会风险概率(CRP) 交会风险指数(CRI) 操作
CDM_260906-142206-324006-583121
2026-09-06T
14:22:10+0000
0.437 km
远距离
2.727629E-4 高风险 0.84
CDM_260904-173605-084106-583121
2026-09-04T
17:36:17+0000
2.479 km
极远距离
1.417388E-6 低风险 0.38
CDM_260904-195705-084106-583121
2026-09-04T
19:57:01+0000
2.916 km
极远距离
1.110433E-6 低风险 0.36
CDM_260905-225306-442006-583121
2026-09-05T
22:53:27+0000
2.582 km
极远距离
6.362946E-7 极低风险 0.31